Regional Weather Roundup
Issued by NWS

Home | Current Version | Previous Version | Text Only | Print | Product List | Glossary Off
Versions: 1 2 3 4 5 6 7 8 9 10 11 12 13 14 15 16 17 18 19 20 21 22 23 24 25 26 27 28 29 30 31 32 33 34 35 36 37 38 39 40 41 42 43 44 45 46 47 48 49 50

000
ASUS45 KBOU 021310
RWRCO

WEATHER ROUNDUP FOR COLORADO
NATIONAL WEATHER SERVICE DENVER/BOULDER CO
700 AM MDT SUN AUG 02 2015

NOTE: "FAIR" INDICATES FEW OR NO CLOUDS BELOW 12000 FEET WITH NO
SIGNIFICANT WEATHER AND/OR OBSTRUCTIONS TO VISIBILITY.

COZ001>005-013-030-031-021400-
...NORTHWEST COLORADO...

CITY           SKY/WX    TMP DP  RH WIND       PRES   REMARKS
CRAIG          PTCLDY    50  43  77 CALM      30.22R
HAYDEN         PTCLDY    55  37  50 E12       30.23S
MEEKER         PTCLDY    53  43  68 NE3       30.23R
MOUNT WERNER   NOT AVBL
STEAMBOAT SPGS PTCLDY    49  42  75 CALM      30.26S
WALDEN         PTCLDY    46  37  71 SE6       30.34R
$$

COZ006>008-011-021400-
...WEST CENTRAL VALLEYS...

CITY           SKY/WX    TMP DP  RH WIND       PRES   REMARKS
GRAND JUNCTION CLOUDY    70  52  52 SE7       30.11R
MONTROSE       CLOUDY    64  54  69 S8        30.20R
EAGLE          MOCLDY    61  45  55 CALM      30.27R
RIFLE          MOCLDY    64  49  57 CALM      30.17R
DELTA          CLOUDY    68  55  62 N5        30.16R
NUCLA          LGT RAIN  61  57  88 CALM      30.26R
$$

COZ017>023-064>068-021400-
...SOUTHWEST COLORADO...

CITY           SKY/WX    TMP DP  RH WIND       PRES   REMARKS
DURANGO        CLOUDY    57  53  86 CALM      30.25R
CORTEZ         RAIN      62  59  90 SW3       30.21R FOG
PAGOSA SPRINGS MOCLDY    55  53  95 CALM      30.32S
TELLURIDE      CLOUDY    53  51  94 CALM      30.41S
WOLF CREEK PAS NOT AVBL
$$

COZ009-010-012-014-032>034-037-058>063-021400-
...CENTRAL COLORADO...

CITY           SKY/WX    TMP DP  RH WIND       PRES   REMARKS
ASPEN          CLOUDY    57  48  72 S3        30.31R
BUENA VISTA    CLOUDY    54  48  80 NW5       30.33S
COPPER MTN     MOCLDY    54  36  50 W5        30.63R
BERTHOUD PASS  MOCLDY    45  34  65 N14       30.67S
COTTONWOOD PAS CLOUDY    59  37  44 W6        30.45S
GUNNISON       CLOUDY    55  52  88 CALM      30.37R
KREMMLING      PTCLDY    50  36  57 CALM      30.34R
LEADVILLE      CLOUDY    50  43  77 NE3       30.46R
MONARCH PASS   CLOUDY    50  36  57 NE6       30.70R
SALIDA         CLOUDY    60  49  67 W3        30.37F
SUNLIGHT       CLOUDY    55  43  62 CALM      30.55S
WILKERSON PASS CLOUDY    52  36  54 CALM      30.58S
$$

COZ069>075-021400-
...SAN LUIS VALLEY/SANGRE DE CRISTO MOUNTAINS...

CITY           SKY/WX    TMP DP  RH WIND       PRES   REMARKS
ALAMOSA        MOCLDY    51  48  89 CALM      30.31R
LA VETA PASS   PTCLDY    45  43  93 MISG      30.45R
SAGUACHE       CLOUDY    55  48  76 NW3       30.33S
$$

COZ035-036-038>040-021400-
...NORTHERN COLORADO FRONT RANGE...

CITY           SKY/WX    TMP DP  RH WIND       PRES   REMARKS
DENVER INTL AP PTSUNNY   68  54  60 W7        30.10R
DMNS CITY PARK   N/A     68  56  65 E7        30.10S
AURORA         PTSUNNY   63  51  64 S3        30.12S
FRONT RANGE AP PTSUNNY   66  50  55 W6        30.12R
ERIE MUNI ARPT MOSUNNY   63  55  77 CALM      30.08S
BOULDER MUN AP PTCLDY    66  45  45 CALM      30.09R
CENTENNIAL     PTSUNNY   68  51  54 CALM      30.13S
BROOMFIELD     PTSUNNY   66  50  55 CALM      30.12R
FORT COLLINS   SUNNY     64  54  68 SE3       30.08S
LONGMONT       SUNNY     64  53  67 CALM      30.10R
$$

COZ041-046-047-076>085-087-088-021400-
...PIKES PEAK/PALMER DIVIDE AND SOUTHERN FOOTHILLS...

CITY           SKY/WX    TMP DP  RH WIND       PRES   REMARKS
COLO. SPRINGS  PTSUNNY   64  47  53 N8        30.16R
A. F. ACADEMY  PTSUNNY   61  47  59 N6        30.18S
ELLICOTT       PTSUNNY  N/A N/A N/A E8        30.14S
FALCON         PTSUNNY   63  50  61 NW5       30.22S
FORT CARSON    MOCLDY    65  49  55 N12       30.11S
LIMON          MOSUNNY   59  52  77 N3        30.11R
MONUMENT HILL  NOT AVBL
TRINIDAD       MOCLDY    64  51  62 W8        30.15R
$$

COZ042>045-048>051-090-091-021400-
...NORTHEAST COLORADO...

CITY           SKY/WX    TMP DP  RH WIND       PRES   REMARKS
GREELEY ARPT   SUNNY     61  54  77 W5        30.07R
AKRON          SUNNY     67  55  65 SW9       30.05R
BURLINGTON     MOSUNNY   65  62  90 SW3       30.04S FOG
WRAY           SUNNY    N/A N/A N/A CALM      30.01R
STERLING       SUNNY     61  55  82 CALM      30.01R
HOLYOKE        NOT AVBL
FORT MORGAN    SUNNY     63  55  75 CALM      30.05R
$$

COZ086-089-092>099-021400-
...SOUTHEAST COLORADO...

CITY           SKY/WX    TMP DP  RH WIND       PRES   REMARKS
PUEBLO         CLOUDY    70  60  70 CALM      30.06R
LA JUNTA       MOSUNNY   71  57  61 S3        30.04R
LAMAR          MOSUNNY   68  59  73 W6        30.00R
SPRINGFIELD      N/A     68  67  96 SW5       30.06R
$$



USA.gov is the U.S. government's official web portal to all federal, state and local government web resources and services.